{"data":{"norad_id":54158,"intl_designator":"2022-141B","name":"STARLINK-5297","alt_names":[],"object_type":"PAYLOAD","status":"ACTIVE","operator":null,"country":"US","launch_date":"2022-10-28","launch_site_code":"AFWTR","launch_vehicle":null,"mission":null,"orbit_class":"UNKNOWN","rcs_meters":null,"size_class":null,"mass_kg":null,"dimensions":null,"purposes":["comms"],"wikipedia_slug":null,"has_3d_model":false,"image_url":null,"decayed_at":null,"tle_current":{"epoch":"2026-09-20T22:00:03.000096Z","epoch_age_seconds":53331,"freshness":"FRESH","line1":"1 54158U 22141B   26263.91670139  .00000283  00000+0  19930-4 0  9996","line2":"2 54158  53.1687 215.5363 0000870  72.2007 213.4654 15.33549080  5809","mean_motion":15.3354908,"eccentricity":8.7e-5,"inclination_deg":53.1687,"raan_deg":215.5363,"arg_perigee_deg":72.2007,"mean_anomaly_deg":213.4654,"bstar":1.993e-5,"rev_number":580,"period_min":93.899831363728,"perigee_km":464.63814990328,"apogee_km":465.82889637431,"semimajor_km":6843.3705231388,"source":"CELESTRAK","updated_at":"2026-09-21T09:00:33.087064Z"}}}